| time (UTC) | temp F | wind direction | speed knots | gust knots | rain 1hr in | rain 24hr in | rain mn in | humidity % | barometer mb |
| 20260507070051 | 45 | 0 | 0.0 | 4.3 | 0.00 | 0.00 | 0.00 | 56 | 1006.1 |
| 20260507064547 | 45 | 0 | 0.9 | 7.0 | 0.00 | 0.00 | 0.00 | 56 | 1006.1 |
| 20260507063038 | 46 | 0 | 0.9 | 7.8 | 0.00 | 0.00 | 0.00 | 56 | 1006.2 |
| 20260507061539 | 46 | 0 | 0.0 | 8.7 | 0.00 | 0.00 | 0.00 | 59 | 1006.4 |
| 20260507060036 | 47 | 0 | 0.0 | 7.8 | 0.00 | 0.00 | 0.00 | 60 | 1006.4 |
| 20260507054543 | 47 | 266 | 0.0 | 6.1 | 0.00 | 0.00 | 0.00 | 58 | 1006.4 |
| 20260507053040 | 47 | 232 | 0.0 | 7.0 | 0.00 | 0.00 | 0.00 | 55 | 1006.3 |
| 20260507051541 | 47 | 0 | 0.0 | 2.6 | 0.00 | 0.00 | 0.00 | 53 | 1006.2 |
| 20260507050039 | 48 | 0 | 0.9 | 4.3 | 0.00 | 0.00 | 0.00 | 50 | 1006.3 |
| 20260507044549 | 48 | 0 | 0.0 | 4.3 | 0.00 | 0.00 | 0.00 | 46 | 1006.3 |
| 20260507043036 | 48 | 0 | 0.0 | 4.3 | 0.00 | 0.00 | 0.00 | 49 | 1006.6 |
| 20260507041546 | 48 | 0 | 0.0 | 0.9 | 0.00 | 0.00 | 0.00 | 53 | 1006.6 |
| 20260507040046 | 49 | 0 | 0.0 | 5.2 | 0.00 | 0.00 | 0.00 | 54 | 1006.8 |
| 20260507034544 | 49 | 0 | 0.0 | 4.3 | 0.00 | 0.00 | 0.00 | 56 | 1006.8 |
| 20260507033049 | 49 | 239 | 0.0 | 6.1 | 0.00 | 0.00 | 0.00 | 58 | 1006.8 |
| 20260507031552 | 49 | 0 | 0.0 | 7.0 | 0.00 | 0.00 | 0.00 | 59 | 1006.9 |
| 20260507030051 | 50 | 0 | 0.9 | 7.0 | 0.00 | 0.00 | 0.00 | 61 | 1007.0 |
| 20260507024602 | 50 | 248 | 0.0 | 2.6 | 0.00 | 0.00 | 0.00 | 61 | 1006.9 |
| 20260507023041 | 50 | 244 | 0.9 | 6.1 | 0.00 | 0.00 | 0.00 | 62 | 1006.9 |
| 20260507021550 | 50 | 0 | 0.9 | 7.0 | 0.00 | 0.00 | 0.00 | 62 | 1006.9 |
| 20260507020053 | 50 | 0 | 1.7 | 7.8 | 0.00 | 0.00 | 0.00 | 62 | 1006.9 |
| 20260507014549 | 50 | 0 | 0.0 | 7.8 | 0.00 | 0.00 | 0.00 | 63 | 1007.0 |
| 20260507013040 | 50 | 178 | 0.0 | 6.1 | 0.00 | 0.00 | 0.00 | 63 | 1006.9 |
| 20260507011547 | 50 | 0 | 0.0 | 7.8 | 0.00 | 0.00 | 0.00 | 63 | 1006.8 |
| 20260507010045 | 50 | 188 | 0.0 | 7.8 | 0.00 | 0.00 | 0.00 | 63 | 1006.8 |
| 20260507004539 | 51 | 212 | 0.0 | 9.6 | 0.00 | 0.00 | 0.00 | 63 | 1006.7 |
| 20260507003039 | 51 | 0 | 0.0 | 7.8 | 0.00 | 0.00 | 0.00 | 63 | 1006.7 |
| 20260507001542 | 51 | 0 | 0.0 | 5.2 | 0.00 | 0.00 | 0.00 | 63 | 1006.5 |
| 20260507000042 | 52 | 0 | 0.0 | 9.6 | 0.00 | 0.00 | 0.00 | 61 | 1006.4 |
| 20260506234552 | 52 | 0 | 0.9 | 7.0 | 0.00 | 0.00 | 0.00 | 61 | 1006.2 |
| 20260506233048 | 53 | 0 | 0.0 | 7.8 | 0.00 | 0.00 | 0.00 | 60 | 1006.2 |
| 20260506231541 | 53 | 0 | 0.0 | 3.5 | 0.00 | 0.00 | 0.00 | 60 | 1005.9 |
| 20260506230037 | 53 | 0 | 0.0 | 6.1 | 0.00 | 0.00 | 0.00 | 60 | 1006.0 |
| 20260506224540 | 53 | 260 | 0.0 | 6.1 | 0.00 | 0.00 | 0.00 | 60 | 1006.0 |
| 20260506223041 | 53 | 0 | 0.0 | 4.3 | 0.00 | 0.00 | 0.00 | 60 | 1006.1 |
| 20260506221539 | 54 | 0 | 0.0 | 7.0 | 0.00 | 0.00 | 0.00 | 59 | 1006.0 |
| 20260506220039 | 54 | 0 | 0.0 | 5.2 | 0.00 | 0.00 | 0.00 | 58 | 1006.0 |
| 20260506214538 | 54 | 0 | 0.0 | 7.0 | 0.00 | 0.00 | 0.00 | 57 | 1006.1 |
| 20260506213038 | 55 | 132 | 0.9 | 7.0 | 0.00 | 0.00 | 0.00 | 54 | 1006.0 |
| 20260506211544 | 56 | 0 | 0.0 | 7.0 | 0.00 | 0.00 | 0.00 | 55 | 1005.9 |
| 20260506210041 | 57 | 0 | 0.0 | 7.0 | 0.00 | 0.00 | 0.00 | 52 | 1005.9 |
| 20260506204541 | 58 | 0 | 0.0 | 5.2 | 0.00 | 0.00 | 0.00 | 51 | 1005.8 |
| 20260506203041 | 58 | 0 | 0.0 | 5.2 | 0.00 | 0.00 | 0.00 | 49 | 1005.8 |
| 20260506201540 | 58 | 0 | 0.0 | 8.7 | 0.00 | 0.00 | 0.00 | 53 | 1006.0 |
| 20260506200040 | 58 | 0 | 0.0 | 0.9 | 0.00 | 0.00 | 0.00 | 48 | 1006.2 |
| 20260506194541 | 58 | 0 | 0.0 | 6.1 | 0.00 | 0.00 | 0.00 | 50 | 1006.4 |
| 20260506193042 | 58 | 0 | 0.0 | 4.3 | 0.00 | 0.00 | 0.00 | 54 | 1006.5 |
| 20260506191538 | 56 | 0 | 0.0 | 3.5 | 0.00 | 0.00 | 0.00 | 56 | 1006.7 |
| 20260506190040 | 55 | 282 | 0.0 | 6.1 | 0.00 | 0.00 | 0.00 | 58 | 1006.6 |
| 20260506184544 | 54 | 169 | 0.0 | 7.0 | 0.00 | 0.00 | 0.00 | 58 | 1006.6 |
| 20260506183042 | 55 | 0 | 0.0 | 5.2 | 0.00 | 0.00 | 0.00 | 57 | 1006.7 |
| 20260506181540 | 54 | 287 | 0.9 | 5.2 | 0.00 | 0.00 | 0.00 | 57 | 1006.6 |
| 20260506180045 | 53 | 225 | 0.0 | 5.2 | 0.00 | 0.00 | 0.00 | 60 | 1006.9 |
| 20260506174539 | 52 | 0 | 0.0 | 5.2 | 0.00 | 0.00 | 0.00 | 62 | 1006.9 |
| 20260506173057 | 51 | 179 | 0.0 | 6.1 | 0.00 | 0.00 | 0.00 | 62 | 1007.1 |
| 20260506171536 | 51 | 135 | 0.0 | 2.6 | 0.00 | 0.00 | 0.00 | 63 | 1006.9 |
| 20260506170044 | 51 | 0 | 0.0 | 4.3 | 0.00 | 0.00 | 0.00 | 62 | 1007.1 |
| 20260506164541 | 52 | 0 | 0.0 | 0.0 | 0.00 | 0.00 | 0.00 | 60 | 1007.2 |
| 20260506163040 | 52 | 0 | 0.0 | 0.0 | 0.00 | 0.00 | 0.00 | 58 | 1007.3 |
| 20260506161539 | 51 | 0 | 0.0 | 2.6 | 0.00 | 0.00 | 0.00 | 60 | 1007.4 |
| 20260506160037 | 51 | 0 | 0.0 | 2.6 | 0.00 | 0.00 | 0.00 | 60 | 1007.4 |
| 20260506154540 | 51 | 0 | 0.0 | 1.7 | 0.00 | 0.00 | 0.00 | 60 | 1007.6 |
| 20260506153046 | 51 | 0 | 0.0 | 3.5 | 0.00 | 0.00 | 0.00 | 61 | 1007.5 |
| 20260506151541 | 50 | 185 | 0.0 | 4.3 | 0.00 | 0.00 | 0.00 | 61 | 1007.8 |
| 20260506150056 | 50 | 0 | 1.7 | 7.0 | 0.00 | 0.00 | 0.00 | 62 | 1008.1 |
| 20260506144541 | 49 | 0 | 0.0 | 6.1 | 0.00 | 0.00 | 0.00 | 63 | 1007.9 |
| 20260506143044 | 49 | 249 | 0.0 | 4.3 | 0.00 | 0.00 | 0.00 | 62 | 1007.9 |
| 20260506141540 | 49 | 0 | 0.0 | 0.0 | 0.00 | 0.00 | 0.00 | 63 | 1007.5 |
| 20260506140041 | 49 | 0 | 0.0 | 0.0 | 0.00 | 0.00 | 0.00 | 63 | 1007.5 |
| 20260506134539 | 49 | 0 | 0.0 | 0.0 | 0.00 | 0.12 | 0.00 | 63 | 1007.6 |
| 20260506133039 | 49 | 0 | 0.0 | 0.0 | 0.00 | 0.12 | 0.00 | 61 | 1007.5 |
| 20260506131546 | 49 | 0 | 0.0 | 0.0 | 0.00 | 0.12 | 0.00 | 59 | 1007.6 |
| 20260506130052 | 48 | 0 | 0.0 | 0.0 | 0.00 | 0.12 | 0.00 | 60 | 1007.7 |
| 20260506124545 | 48 | 0 | 0.0 | 0.0 | 0.00 | 0.13 | 0.00 | 58 | 1007.5 |
| 20260506123042 | 48 | 0 | 0.0 | 0.0 | 0.00 | 0.13 | 0.00 | 60 | 1007.6 |
| 20260506121539 | 48 | 0 | 0.0 | 0.0 | 0.00 | 0.13 | 0.00 | 63 | 1007.5 |
| 20260506120036 | 47 | 0 | 0.0 | 0.0 | 0.00 | 0.13 | 0.00 | 64 | 1007.6 |
| 20260506114542 | 47 | 0 | 0.0 | 0.0 | 0.00 | 0.13 | 0.00 | 64 | 1007.7 |
| 20260506113050 | 47 | 0 | 0.0 | 0.0 | 0.00 | 0.13 | 0.00 | 64 | 1007.5 |
| 20260506111541 | 47 | 0 | 0.0 | 0.0 | 0.00 | 0.13 | 0.00 | 64 | 1007.5 |
| 20260506110047 | 47 | 0 | 0.0 | 0.0 | 0.00 | 0.13 | 0.00 | 63 | 1007.4 |
| 20260506104543 | 46 | 0 | 0.0 | 0.0 | 0.00 | 0.13 | 0.00 | 64 | 1007.4 |
| 20260506103045 | 46 | 0 | 0.0 | 0.0 | 0.00 | 0.13 | 0.00 | 63 | 1007.5 |
| 20260506101552 | 46 | 0 | 0.0 | 0.0 | 0.00 | 0.13 | 0.00 | 61 | 1007.5 |
| 20260506100059 | 47 | 0 | 0.0 | 0.0 | 0.00 | 0.13 | 0.00 | 60 | 1007.7 |
| 20260506094540 | 47 | 0 | 0.0 | 0.0 | 0.00 | 0.13 | 0.00 | 58 | 1007.4 |
| 20260506093043 | 47 | 0 | 0.0 | 0.0 | 0.00 | 0.13 | 0.00 | 58 | 1007.4 |
| 20260506091538 | 47 | 0 | 0.0 | 0.0 | 0.00 | 0.13 | 0.00 | 58 | 1007.2 |
| 20260506090035 | 48 | 0 | 0.0 | 0.0 | 0.00 | 0.13 | 0.00 | 56 | 1007.3 |
| 20260506084604 | 48 | 0 | 0.0 | 0.0 | 0.00 | 0.13 | 0.00 | 55 | 1007.3 |
| 20260506083040 | 48 | 0 | 0.0 | 0.0 | 0.00 | 0.13 | 0.00 | 53 | 1007.5 |
| 20260506081546 | 48 | 0 | 0.0 | 0.0 | 0.00 | 0.13 | 0.00 | 52 | 1007.3 |
| 20260506073046 | 49 | 0 | 0.0 | 0.0 | 0.00 | 0.13 | 0.00 | 51 | 1007.5 |
| 20260506071541 | 49 | 0 | 0.0 | 0.0 | 0.00 | 0.13 | 0.00 | 51 | 1007.5 |